• In Deutschland
  • Länderverzeichnis
  • Für 7 Tage
  • Wassertemperatur
  • Satellitenkarten
  • Wetterkarte
  • Widgets
  • user-avatar
    Anmelden

    Stündliche Wetter Bad Driburg

    Heute, 19 Oktober, Donnerstag

    Zeit Temperatur Niederschläge Wind Luftdruck Luftfeuchtigkeit
    00:00 +10°C° 0 mm 2 m/S 735 mmHg 89%
    01:00 +11°C° 0 mm 1 m/S 735 mmHg 90%
    02:00 +11°C° 0 mm 1 m/S 735 mmHg 91%
    03:00 +11°C° 0 mm 1 m/S 735 mmHg 91%
    04:00 +11°C° 0 mm 1 m/S 735 mmHg 91%
    05:00 +11°C° 0 mm 1 m/S 735 mmHg 91%
    06:00 +10°C° 0 mm 2 m/S 735 mmHg 91%
    07:00 +10°C° 0 mm 1 m/S 735 mmHg 90%
    08:00 +12°C° 0 mm 1 m/S 735 mmHg 84%
    09:00 +14°C° 0 mm 2 m/S 735 mmHg 78%
    10:00 +16°C° 0 mm 2 m/S 735 mmHg 72%
    11:00 +17°C° 0 mm 2 m/S 735 mmHg 68%
    12:00 +18°C° 0 mm 3 m/S 735 mmHg 64%
    13:00 +19°C° 0 mm 3 m/S 735 mmHg 60%
    14:00 +19°C° 0 mm 3 m/S 734 mmHg 63%
    15:00 +19°C° 0 mm 3 m/S 734 mmHg 66%
    16:00 +18°C° 0 mm 2 m/S 734 mmHg 69%
    17:00 +17°C° 0 mm 2 m/S 734 mmHg 74%
    18:00 +15°C° 0 mm 2 m/S 734 mmHg 79%
    19:00 +14°C° 0 mm 2 m/S 734 mmHg 84%
    20:00 +13°C° 0 mm 2 m/S 734 mmHg 83%
    21:00 +13°C° 0 mm 2 m/S 734 mmHg 82%
    22:00 +13°C° 0 mm 2 m/S 734 mmHg 81%
    23:00 +13°C° 0 mm 2 m/S 734 mmHg 80%

    Morgen, 20 Oktober, Freitag

    Zeit Temperatur Niederschläge Wind Luftdruck Luftfeuchtigkeit
    00:00 +13°C° 0 mm 2 m/S 734 mmHg 80%
    01:00 +13°C° 0 mm 2 m/S 734 mmHg 79%
    02:00 +13°C° 0 mm 2 m/S 734 mmHg 77%
    03:00 +12°C° 0 mm 3 m/S 734 mmHg 76%
    04:00 +12°C° 0 mm 3 m/S 734 mmHg 75%
    05:00 +12°C° 0 mm 3 m/S 734 mmHg 73%
    06:00 +13°C° 0 mm 3 m/S 734 mmHg 72%
    07:00 +13°C° 0 mm 3 m/S 734 mmHg 70%
    08:00 +13°C° 0,4 mm 3 m/S 734 mmHg 73%
    09:00 +13°C° 0,4 mm 4 m/S 735 mmHg 75%
    10:00 +14°C° 0,4 mm 4 m/S 735 mmHg 77%
    11:00 +14°C° 0,7 mm 4 m/S 735 mmHg 81%
    12:00 +14°C° 0,7 mm 4 m/S 735 mmHg 84%
    13:00 +13°C° 0,7 mm 4 m/S 735 mmHg 87%
    14:00 +14°C° 0,3 mm 4 m/S 735 mmHg 85%
    15:00 +14°C° 0,3 mm 4 m/S 735 mmHg 83%
    16:00 +14°C° 0,3 mm 4 m/S 735 mmHg 81%
    17:00 +13°C° 0 mm 3 m/S 736 mmHg 84%
    18:00 +11°C° 0 mm 3 m/S 736 mmHg 86%
    19:00 +10°C° 0 mm 2 m/S 736 mmHg 88%
    20:00 +9°C° 0 mm 2 m/S 736 mmHg 89%
    21:00 +9°C° 0 mm 2 m/S 737 mmHg 90%
    22:00 +8°C° 0 mm 2 m/S 737 mmHg 91%
    23:00 +8°C° 0 mm 2 m/S 737 mmHg 91%

    übermorgen, 21 Oktober, Samstag

    Zeit Temperatur Niederschläge Wind Luftdruck Luftfeuchtigkeit
    00:00 +8°C° 0 mm 2 m/S 737 mmHg 91%
    01:00 +7°C° 0 mm 2 m/S 737 mmHg 92%
    02:00 +8°C° 0 mm 2 m/S 737 mmHg 90%
    03:00 +8°C° 0 mm 2 m/S 736 mmHg 89%
    04:00 +9°C° 0 mm 2 m/S 736 mmHg 87%
    05:00 +9°C° 0 mm 3 m/S 736 mmHg 89%
    06:00 +9°C° 0 mm 3 m/S 735 mmHg 90%
    07:00 +9°C° 0 mm 3 m/S 735 mmHg 92%
    08:00 +10°C° 0,1 mm 3 m/S 735 mmHg 90%
    09:00 +12°C° 0,1 mm 4 m/S 735 mmHg 88%
    10:00 +13°C° 0,1 mm 4 m/S 735 mmHg 87%
    11:00 +13°C° 0,4 mm 4 m/S 735 mmHg 88%
    12:00 +13°C° 0,4 mm 4 m/S 734 mmHg 89%
    13:00 +13°C° 0,4 mm 4 m/S 734 mmHg 90%
    14:00 +14°C° 0 mm 4 m/S 734 mmHg 88%
    15:00 +14°C° 0 mm 4 m/S 734 mmHg 87%
    16:00 +14°C° 0 mm 4 m/S 734 mmHg 85%
    17:00 +13°C° 0,1 mm 4 m/S 734 mmHg 88%
    18:00 +12°C° 0,1 mm 4 m/S 735 mmHg 90%
    19:00 +11°C° 0,1 mm 4 m/S 735 mmHg 92%
    20:00 +11°C° 0,1 mm 4 m/S 735 mmHg 90%
    21:00 +11°C° 0,1 mm 4 m/S 735 mmHg 89%
    22:00 +10°C° 0,1 mm 4 m/S 736 mmHg 87%
    23:00 +10°C° 0 mm 4 m/S 735 mmHg 87%

    22 Oktober, Sonntag

    Zeit Temperatur Niederschläge Wind Luftdruck Luftfeuchtigkeit
    00:00 +8°C° 0 mm 4 m/S 735 mmHg 88%
    01:00 +8°C° 0 mm 4 m/S 735 mmHg 88%
    02:00 +7°C° 0 mm 4 m/S 735 mmHg 88%
    03:00 +7°C° 0 mm 5 m/S 735 mmHg 88%
    04:00 +7°C° 0 mm 5 m/S 735 mmHg 88%
    05:00 +7°C° 0 mm 5 m/S 735 mmHg 88%
    06:00 +6°C° 0 mm 5 m/S 735 mmHg 87%
    07:00 +6°C° 0 mm 5 m/S 735 mmHg 87%
    08:00 +7°C° 0 mm 5 m/S 735 mmHg 83%
    09:00 +8°C° 0 mm 6 m/S 735 mmHg 78%
    10:00 +9°C° 0 mm 6 m/S 735 mmHg 74%
    11:00 +9°C° 0 mm 6 m/S 735 mmHg 72%
    12:00 +9°C° 0 mm 6 m/S 735 mmHg 71%
    13:00 +9°C° 0 mm 6 m/S 735 mmHg 70%
    14:00 +9°C° 0 mm 5 m/S 735 mmHg 71%
    15:00 +9°C° 0 mm 5 m/S 735 mmHg 73%
    16:00 +9°C° 0 mm 5 m/S 735 mmHg 74%
    17:00 +8°C° 0,1 mm 5 m/S 735 mmHg 77%
    18:00 +7°C° 0,1 mm 4 m/S 735 mmHg 80%
    19:00 +7°C° 0,1 mm 4 m/S 735 mmHg 84%
    20:00 +7°C° 0,3 mm 4 m/S 736 mmHg 85%
    21:00 +7°C° 0,3 mm 4 m/S 736 mmHg 87%
    22:00 +7°C° 0,3 mm 4 m/S 736 mmHg 89%
    23:00 +7°C° 0 mm 4 m/S 736 mmHg 90%

    23 Oktober, Montag

    Zeit Temperatur Niederschläge Wind Luftdruck Luftfeuchtigkeit
    00:00 +6°C° 0 mm 4 m/S 737 mmHg 91%
    01:00 +6°C° 0 mm 4 m/S 737 mmHg 92%
    02:00 +6°C° 0 mm 4 m/S 737 mmHg 92%
    03:00 +6°C° 0 mm 4 m/S 737 mmHg 92%
    04:00 +6°C° 0 mm 4 m/S 738 mmHg 92%
    05:00 +6°C° 0,1 mm 4 m/S 738 mmHg 93%
    06:00 +6°C° 0,1 mm 4 m/S 738 mmHg 94%
    07:00 +6°C° 0,1 mm 4 m/S 739 mmHg 94%
    08:00 +7°C° 0,3 mm 4 m/S 739 mmHg 93%
    09:00 +8°C° 0,3 mm 4 m/S 740 mmHg 91%
    10:00 +8°C° 0,3 mm 4 m/S 740 mmHg 89%
    11:00 +10°C° 0,1 mm 4 m/S 740 mmHg 86%
    12:00 +11°C° 0,1 mm 4 m/S 741 mmHg 83%
    13:00 +10°C° 0,1 mm 5 m/S 741 mmHg 79%
    14:00 +11°C° 0,1 mm 4 m/S 741 mmHg 81%
    15:00 +11°C° 0,1 mm 4 m/S 741 mmHg 82%
    16:00 +10°C° 0,1 mm 3 m/S 741 mmHg 84%
    17:00 +10°C° 0,2 mm 3 m/S 741 mmHg 87%
    18:00 +9°C° 0,2 mm 3 m/S 742 mmHg 90%
    19:00 +9°C° 0,2 mm 2 m/S 742 mmHg 93%
    20:00 +9°C° 0,2 mm 2 m/S 742 mmHg 93%
    21:00 +9°C° 0,2 mm 2 m/S 742 mmHg 94%
    22:00 +9°C° 0,2 mm 2 m/S 742 mmHg 94%
    23:00 +9°C° 0,1 mm 2 m/S 742 mmHg 95%

    24 Oktober, Dienstag

    Zeit Temperatur Niederschläge Wind Luftdruck Luftfeuchtigkeit
    00:00 +10°C° 0,1 mm 2 m/S 742 mmHg 95%
    01:00 +10°C° 0,1 mm 2 m/S 742 mmHg 95%
    02:00 +10°C° 0,1 mm 2 m/S 742 mmHg 96%
    03:00 +10°C° 0,1 mm 2 m/S 742 mmHg 96%
    04:00 +10°C° 0,1 mm 2 m/S 742 mmHg 97%
    05:00 +10°C° 0,1 mm 2 m/S 743 mmHg 97%
    06:00 +10°C° 0,1 mm 2 m/S 743 mmHg 97%
    07:00 +11°C° 0,1 mm 1 m/S 743 mmHg 97%
    08:00 +12°C° 0,1 mm 2 m/S 743 mmHg 96%
    09:00 +12°C° 0,1 mm 2 m/S 744 mmHg 94%
    10:00 +13°C° 0,1 mm 2 m/S 744 mmHg 93%
    11:00 +13°C° 0 mm 2 m/S 744 mmHg 92%
    12:00 +14°C° 0 mm 2 m/S 744 mmHg 90%
    13:00 +15°C° 0 mm 2 m/S 744 mmHg 89%
    14:00 +15°C° 0 mm 2 m/S 744 mmHg 90%
    15:00 +15°C° 0 mm 2 m/S 744 mmHg 90%
    16:00 +15°C° 0 mm 1 m/S 744 mmHg 91%
    17:00 +14°C° 0 mm 1 m/S 744 mmHg 93%
    18:00 +13°C° 0 mm 2 m/S 745 mmHg 94%
    19:00 +13°C° 0 mm 2 m/S 745 mmHg 95%
    20:00 +12°C° 0 mm 2 m/S 745 mmHg 95%
    21:00 +12°C° 0 mm 2 m/S 745 mmHg 95%
    22:00 +12°C° 0 mm 2 m/S 745 mmHg 96%
    23:00 +10°C° 0 mm 2 m/S 745 mmHg 96%
    Mehr zeigen